START_TIME,STEP,MOV.,M35,t_acc.,PL05,t_acc.,PL06,t_acc.,PL07,t_acc.
1981-08-27 00:00:48.740 ,0,0,0.,4.8,0.,4.8,0.,4.8,0.,4.8
1981-08-27 00:00:53.540 ,0,0,0.,4.8,1.,4.8,0.,4.8,0.,4.8
1981-08-27 00:00:58.340 ,0,0,0.,4.8,3.,4.8,0.,4.8,0.,4.8
1981-08-27 00:01:03.140 ,0,0,0.,4.8,2.,4.8,0.,4.8,0.,4.8
1981-08-27 00:01:07.940 ,0,0,0.,4.8,3.,4.8,0.,4.8,0.,4.8
1981-08-27 00:01:12.740 ,0,0,0.,4.8,1.,4.8,0.,4.8,0.,4.8
1981-08-27 00:01:17.540 ,0,0,0.,4.8,3.,4.8,0.,4.8,0.,4.8
1981-08-27 00:01:22.340 ,0,0,0.,4.8,1.,4.8,1.,4.8,1.,4.8
1981-08-27 00:01:27.140 ,0,0,0.,4.8,1.,4.8,0.,4.8,0.,4.8
1981-08-27 00:01:31.940 ,0,0,0.,4.8,1.,4.8,0.,4.8,0.,4.8
1981-08-27 00:01:36.740 ,4,0,0.,4.8,2.,4.8,0.,4.8,0.,4.8
1981-08-27 00:01:41.540 ,4,0,0.,4.8,1.,4.8,1.,4.8,0.,4.8
1981-08-27 00:01:46.340 ,4,0,0.,4.8,3.,4.8,1.,4.8,1.,4.8
1981-08-27 00:01:51.140 ,4,0,0.,4.8,0.,4.8,0.,4.8,0.,4.8
1981-08-27 00:01:55.940 ,4,0,0.,4.8,3.,4.8,0.,4.8,1.,4.8
1981-08-27 00:02:00.740 ,4,0,0.,4.8,4.,4.8,0.,4.8,0.,4.8
1981-08-27 00:02:05.540 ,4,0,0.,4.8,0.,4.8,0.,4.8,0.,4.8
1981-08-27 00:02:10.340 ,4,0,0.,4.8,0.,4.8,0.,4.8,0.,4.8
1981-08-27 00:02:15.140 ,4,0,0.,4.8,1.,4.8,1.,4.8,0.,4.8
1981-08-27 00:02:19.940 ,4,0,0.,4.8,2.,4.8,0.,4.8,0.,4.8
1981-08-27 00:02:24.740 ,5,0,0.,4.8,2.,4.8,0.,4.8,1.,4.8
1981-08-27 00:02:29.540 ,5,0,0.,4.8,2.,4.8,0.,4.8,0.,4.8
1981-08-27 00:02:34.340 ,5,0,0.,4.8,2.,4.8,0.,4.8,0.,4.8
1981-08-27 00:02:39.140 ,5,0,0.,4.8,0.,4.8,0.,4.8,0.,4.8
1981-08-27 00:02:43.940 ,5,0,0.,4.8,0.,4.8,1.,4.8,0.,4.8
1981-08-27 00:02:48.740 ,5,0,0.,4.8,2.,4.8,0.,4.8,0.,4.8
1981-08-27 00:02:53.540 ,5,0,0.,4.8,2.,4.8,0.,4.8,0.,4.8
1981-08-27 00:02:58.340 ,5,0,0.,4.8,3.,4.8,0.,4.8,0.,4.8
1981-08-27 00:03:03.140 ,5,0,0.,4.8,0.,4.8,1.,4.8,0.,4.8
1981-08-27 00:03:07.940 ,5,0,0.,4.8,1.,4.8,0.,4.8,0.,4.8
1981-08-27 00:03:12.740 ,6,0,0.,4.8,1.,4.8,0.,4.8,0.,4.8
1981-08-27 00:03:17.540 ,6,0,0.,4.8,1.,4.8,0.,4.8,0.,4.8
1981-08-27 00:03:22.340 ,6,0,0.,4.8,3.,4.8,0.,4.8,0.,4.8
1981-08-27 00:03:27.140 ,6,0,0.,4.8,2.,4.8,2.,4.8,1.,4.8
1981-08-27 00:03:31.940 ,6,0,0.,4.8,0.,4.8,2.,4.8,0.,4.8
1981-08-27 00:03:36.740 ,6,0,0.,4.8,3.,4.8,0.,4.8,0.,4.8
1981-08-27 00:03:41.540 ,6,0,0.,4.8,0.,4.8,0.,4.8,1.,4.8
1981-08-27 00:03:46.340 ,6,0,0.,4.8,1.,4.8,0.,4.8,0.,4.8
1981-08-27 00:03:51.140 ,6,0,0.,4.8,0.,4.8,0.,4.8,0.,4.8
1981-08-27 00:03:55.940 ,6,0,0.,4.8,1.,4.8,0.,4.8,0.,4.8
1981-08-27 00:04:00.740 ,7,0,0.,4.8,2.,4.8,1.,4.8,0.,4.8
1981-08-27 00:04:05.540 ,7,0,0.,4.8,2.,4.8,0.,4.8,0.,4.8
1981-08-27 00:04:10.340 ,7,0,0.,4.8,0.,4.8,0.,4.8,0.,4.8
1981-08-27 00:04:15.140 ,7,0,0.,4.8,0.,4.8,0.,4.8,0.,4.8
1981-08-27 00:04:19.940 ,7,0,0.,4.8,1.,4.8,0.,4.8,0.,4.8
1981-08-27 00:04:24.740 ,7,0,0.,4.8,2.,4.8,0.,4.8,0.,4.8
1981-08-27 00:04:29.540 ,7,0,0.,4.8,0.,4.8,0.,4.8,0.,4.8
1981-08-27 00:04:34.340 ,7,0,0.,4.8,0.,4.8,0.,4.8,0.,4.8
1981-08-27 00:04:39.140 ,7,0,0.,4.8,0.,4.8,0.,4.8,0.,4.8
1981-08-27 00:04:43.940 ,7,0,0.,4.8,0.,4.8,0.,4.8,0.,4.8
1981-08-27 00:04:48.740 ,7,0,0.,4.8,0.,4.8,0.,4.8,0.,4.8
1981-08-27 00:04:53.540 ,7,0,0.,4.8,0.,4.8,0.,4.8,0.,4.8
1981-08-27 00:04:58.340 ,7,0,0.,4.8,1.,4.8,0.,4.8,1.,4.8
1981-08-27 00:05:03.140 ,7,0,0.,4.8,2.,4.8,0.,4.8,0.,4.8
1981-08-27 00:05:07.940 ,7,0,0.,4.8,0.,4.8,0.,4.8,0.,4.8
1981-08-27 00:05:12.740 ,7,0,0.,4.8,1.,4.8,0.,4.8,0.,4.8
1981-08-27 00:05:17.540 ,7,0,0.,4.8,0.,4.8,0.,4.8,0.,4.8
1981-08-27 00:05:22.340 ,7,0,0.,4.8,0.,4.8,0.,4.8,0.,4.8
1981-08-27 00:05:27.140 ,7,0,0.,4.8,1.,4.8,0.,4.8,0.,4.8
1981-08-27 00:05:31.940 ,7,0,0.,4.8,1.,4.8,0.,4.8,0.,4.8
1981-08-27 00:05:36.740 ,6,0,0.,4.8,1.,4.8,0.,4.8,0.,4.8
1981-08-27 00:05:41.540 ,6,0,0.,4.8,1.,4.8,0.,4.8,1.,4.8
1981-08-27 00:05:46.340 ,6,0,0.,4.8,1.,4.8,0.,4.8,0.,4.8
1981-08-27 00:05:51.140 ,6,0,0.,4.8,2.,4.8,0.,4.8,0.,4.8
1981-08-27 00:05:55.940 ,6,0,0.,4.8,2.,4.8,0.,4.8,0.,4.8
1981-08-27 00:06:00.740 ,6,0,0.,4.8,2.,4.8,1.,4.8,0.,4.8
1981-08-27 00:06:05.540 ,6,0,0.,4.8,2.,4.8,1.,4.8,0.,4.8
1981-08-27 00:06:10.340 ,6,0,0.,4.8,3.,4.8,0.,4.8,0.,4.8
1981-08-27 00:06:15.140 ,6,0,0.,4.8,1.,4.8,0.,4.8,1.,4.8
1981-08-27 00:06:19.940 ,6,0,0.,4.8,3.,4.8,0.,4.8,0.,4.8
1981-08-27 00:06:24.740 ,5,0,0.,4.8,2.,4.8,0.,4.8,0.,4.8
1981-08-27 00:06:29.540 ,5,0,0.,4.8,1.,4.8,0.,4.8,0.,4.8
1981-08-27 00:06:34.340 ,5,0,0.,4.8,2.,4.8,0.,4.8,0.,4.8
1981-08-27 00:06:39.140 ,5,0,0.,4.8,1.,4.8,0.,4.8,0.,4.8
1981-08-27 00:06:43.940 ,5,0,0.,4.8,2.,4.8,0.,4.8,0.,4.8
1981-08-27 00:06:48.740 ,5,0,0.,4.8,4.,4.8,0.,4.8,0.,4.8
1981-08-27 00:06:53.540 ,5,0,0.,4.8,1.,4.8,1.,4.8,0.,4.8
1981-08-27 00:06:58.340 ,5,0,0.,4.8,2.,4.8,0.,4.8,0.,4.8
1981-08-27 00:07:03.140 ,5,0,0.,4.8,1.,4.8,1.,4.8,0.,4.8
1981-08-27 00:07:07.940 ,5,0,0.,4.8,3.,4.8,0.,4.8,0.,4.8
1981-08-27 00:07:12.740 ,4,0,0.,4.8,1.,4.8,0.,4.8,0.,4.8
1981-08-27 00:07:17.540 ,4,0,0.,4.8,3.,4.8,0.,4.8,0.,4.8
1981-08-27 00:07:22.340 ,4,0,0.,4.8,1.,4.8,0.,4.8,0.,4.8
1981-08-27 00:07:27.140 ,4,0,0.,4.8,1.,4.8,0.,4.8,1.,4.8
1981-08-27 00:07:31.940 ,4,0,0.,4.8,2.,4.8,0.,4.8,0.,4.8
1981-08-27 00:07:36.740 ,4,0,0.,4.8,2.,4.8,1.,4.8,0.,4.8
1981-08-27 00:07:41.540 ,4,0,0.,4.8,2.,4.8,0.,4.8,0.,4.8
1981-08-27 00:07:46.340 ,4,0,0.,4.8,1.,4.8,0.,4.8,0.,4.8
1981-08-27 00:07:51.140 ,4,0,0.,4.8,1.,4.8,0.,4.8,0.,4.8
1981-08-27 00:07:55.940 ,4,0,0.,4.8,1.,4.8,0.,4.8,1.,4.8
1981-08-27 00:08:00.740 ,3,0,0.,4.8,2.,4.8,0.,4.8,0.,4.8
1981-08-27 00:08:05.540 ,3,0,0.,4.8,3.,4.8,0.,4.8,0.,4.8
1981-08-27 00:08:10.340 ,3,0,0.,4.8,2.,4.8,0.,4.8,0.,4.8
1981-08-27 00:08:15.140 ,3,0,0.,4.8,0.,4.8,0.,4.8,0.,4.8
1981-08-27 00:08:19.940 ,3,0,0.,4.8,1.,4.8,0.,4.8,0.,4.8
1981-08-27 00:08:24.740 ,3,0,0.,4.8,1.,4.8,0.,4.8,0.,4.8
1981-08-27 00:08:29.540 ,3,0,0.,4.8,3.,4.8,0.,4.8,0.,4.8
1981-08-27 00:08:34.340 ,3,0,0.,4.8,1.,4.8,0.,4.8,0.,4.8
1981-08-27 00:08:39.140 ,3,0,0.,4.8,1.,4.8,1.,4.8,1.,4.8
1981-08-27 00:08:43.940 ,3,0,0.,4.8,6.,4.8,0.,4.8,0.,4.8
1981-08-27 00:08:48.740 ,2,0,0.,4.8,2.,4.8,0.,4.8,0.,4.8
1981-08-27 00:08:53.540 ,2,0,0.,4.8,3.,4.8,0.,4.8,0.,4.8
1981-08-27 00:08:58.340 ,2,0,0.,4.8,1.,4.8,0.,4.8,0.,4.8
1981-08-27 00:09:03.140 ,2,0,0.,4.8,1.,4.8,0.,4.8,0.,4.8
1981-08-27 00:09:07.940 ,2,0,0.,4.8,2.,4.8,2.,4.8,1.,4.8
1981-08-27 00:09:12.740 ,2,0,0.,4.8,2.,4.8,0.,4.8,0.,4.8
1981-08-27 00:09:17.540 ,2,0,0.,4.8,2.,4.8,0.,4.8,1.,4.8
1981-08-27 00:09:22.340 ,2,0,0.,4.8,2.,4.8,0.,4.8,0.,4.8
1981-08-27 00:09:27.140 ,2,0,0.,4.8,1.,4.8,0.,4.8,0.,4.8
1981-08-27 00:09:31.940 ,2,0,0.,4.8,4.,4.8,0.,4.8,0.,4.8
1981-08-27 00:09:36.740 ,1,0,0.,4.8,0.,4.8,0.,4.8,1.,4.8
1981-08-27 00:09:41.540 ,1,0,0.,4.8,2.,4.8,1.,4.8,0.,4.8
1981-08-27 00:09:46.340 ,1,0,0.,4.8,1.,4.8,0.,4.8,0.,4.8
1981-08-27 00:09:51.140 ,1,0,0.,4.8,2.,4.8,0.,4.8,0.,4.8
1981-08-27 00:09:55.940 ,1,0,0.,4.8,1.,4.8,0.,4.8,0.,4.8
1981-08-27 00:10:00.740 ,1,0,0.,4.8,1.,4.8,0.,4.8,0.,4.8
1981-08-27 00:10:05.540 ,1,0,0.,4.8,0.,4.8,0.,4.8,0.,4.8
1981-08-27 00:10:10.340 ,1,0,0.,4.8,1.,4.8,0.,4.8,0.,4.8
1981-08-27 00:10:15.140 ,1,0,0.,4.8,1.,4.8,0.,4.8,0.,4.8
1981-08-27 00:10:19.940 ,1,0,0.,4.8,0.,4.8,0.,4.8,0.,4.8
1981-08-27 00:10:24.740 ,0,0,0.,4.8,0.,4.8,1.,4.8,0.,4.8
1981-08-27 00:10:29.540 ,0,0,0.,4.8,1.,4.8,0.,4.8,0.,4.8
1981-08-27 00:10:34.340 ,0,0,0.,4.8,2.,4.8,0.,4.8,0.,4.8
1981-08-27 00:10:39.140 ,0,0,0.,4.8,1.,4.8,1.,4.8,0.,4.8
1981-08-27 00:10:43.940 ,0,0,0.,4.8,2.,4.8,0.,4.8,0.,4.8
1981-08-27 00:10:48.740 ,0,0,0.,4.8,1.,4.8,0.,4.8,0.,4.8
1981-08-27 00:10:53.540 ,0,0,0.,4.8,0.,4.8,0.,4.8,0.,4.8
1981-08-27 00:10:58.340 ,0,0,0.,4.8,2.,4.8,0.,4.8,0.,4.8
1981-08-27 00:11:03.140 ,0,0,0.,4.8,4.,4.8,0.,4.8,0.,4.8
1981-08-27 00:11:07.940 ,0,0,0.,4.8,2.,4.8,0.,4.8,0.,4.8
1981-08-27 00:11:12.740 ,0,0,0.,4.8,0.,4.8,0.,4.8,0.,4.8
1981-08-27 00:11:17.540 ,0,0,0.,4.8,1.,4.8,1.,4.8,0.,4.8
1981-08-27 00:11:22.340 ,0,0,0.,4.8,3.,4.8,0.,4.8,0.,4.8
1981-08-27 00:11:27.140 ,0,0,0.,4.8,1.,4.8,0.,4.8,0.,4.8
1981-08-27 00:11:31.940 ,0,0,0.,4.8,1.,4.8,1.,4.8,0.,4.8
1981-08-27 00:11:36.740 ,0,0,0.,4.8,0.,4.8,0.,4.8,0.,4.8
1981-08-27 00:11:41.540 ,0,0,0.,4.8,2.,4.8,0.,4.8,0.,4.8
1981-08-27 00:11:46.340 ,0,0,0.,4.8,0.,4.8,0.,4.8,0.,4.8
1981-08-27 00:11:51.140 ,0,0,0.,4.8,0.,4.8,0.,4.8,0.,4.8
1981-08-27 00:11:55.940 ,0,0,0.,4.8,1.,4.8,0.,4.8,0.,4.8
1981-08-27 00:12:00.740 ,1,0,0.,4.8,4.,4.8,0.,4.8,0.,4.8
1981-08-27 00:12:05.540 ,1,0,0.,4.8,1.,4.8,0.,4.8,0.,4.8
1981-08-27 00:12:10.340 ,1,0,0.,4.8,3.,4.8,0.,4.8,0.,4.8
1981-08-27 00:12:15.140 ,1,0,0.,4.8,0.,4.8,0.,4.8,0.,4.8
1981-08-27 00:12:19.940 ,1,0,0.,4.8,0.,4.8,0.,4.8,0.,4.8
1981-08-27 00:12:24.740 ,1,0,0.,4.8,0.,4.8,0.,4.8,0.,4.8
1981-08-27 00:12:29.540 ,1,0,0.,4.8,2.,4.8,0.,4.8,0.,4.8
1981-08-27 00:12:34.340 ,1,0,0.,4.8,1.,4.8,0.,4.8,0.,4.8
1981-08-27 00:12:39.140 ,1,0,0.,4.8,1.,4.8,0.,4.8,0.,4.8
1981-08-27 00:12:43.940 ,1,0,0.,4.8,1.,4.8,0.,4.8,1.,4.8
1981-08-27 00:12:48.740 ,2,0,0.,4.8,1.,4.8,1.,4.8,0.,4.8
1981-08-27 00:12:53.540 ,2,0,0.,4.8,2.,4.8,0.,4.8,1.,4.8
1981-08-27 00:12:58.340 ,2,0,0.,4.8,1.,4.8,0.,4.8,0.,4.8
1981-08-27 00:13:03.140 ,2,0,0.,4.8,1.,4.8,0.,4.8,0.,4.8
1981-08-27 00:13:07.940 ,2,0,0.,4.8,1.,4.8,0.,4.8,0.,4.8
1981-08-27 00:13:12.740 ,2,0,0.,4.8,0.,4.8,1.,4.8,0.,4.8
1981-08-27 00:13:17.540 ,2,0,0.,4.8,2.,4.8,0.,4.8,0.,4.8
1981-08-27 00:13:22.340 ,2,0,0.,4.8,0.,4.8,0.,4.8,0.,4.8
1981-08-27 00:13:27.140 ,2,0,0.,4.8,1.,4.8,0.,4.8,0.,4.8
1981-08-27 00:13:31.940 ,2,0,0.,4.8,1.,4.8,0.,4.8,0.,4.8
1981-08-27 00:13:36.740 ,3,0,0.,4.8,1.,4.8,0.,4.8,0.,4.8
1981-08-27 00:13:41.540 ,3,0,0.,4.8,1.,4.8,0.,4.8,0.,4.8
1981-08-27 00:13:46.340 ,3,0,0.,4.8,1.,4.8,0.,4.8,0.,4.8
1981-08-27 00:13:51.140 ,3,0,0.,4.8,2.,4.8,0.,4.8,0.,4.8
1981-08-27 00:13:55.940 ,3,0,0.,4.8,2.,4.8,0.,4.8,0.,4.8
1981-08-27 00:14:00.740 ,3,0,0.,4.8,1.,4.8,0.,4.8,1.,4.8
1981-08-27 00:14:05.540 ,3,0,0.,4.8,1.,4.8,0.,4.8,0.,4.8
1981-08-27 00:14:10.340 ,3,0,0.,4.8,2.,4.8,1.,4.8,0.,4.8
1981-08-27 00:14:15.140 ,3,0,0.,4.8,3.,4.8,0.,4.8,0.,4.8
1981-08-27 00:14:19.940 ,3,0,0.,4.8,0.,4.8,1.,4.8,0.,4.8
1981-08-27 00:14:24.740 ,4,0,0.,4.8,0.,4.8,0.,4.8,0.,4.8
1981-08-27 00:14:29.540 ,4,0,0.,4.8,3.,4.8,1.,4.8,0.,4.8
1981-08-27 00:14:34.340 ,4,0,0.,4.8,4.,4.8,1.,4.8,0.,4.8
1981-08-27 00:14:39.140 ,4,0,0.,4.8,2.,4.8,1.,4.8,0.,4.8
1981-08-27 00:14:43.940 ,4,0,0.,4.8,2.,4.8,0.,4.8,1.,4.8
1981-08-27 00:14:48.740 ,4,0,0.,4.8,2.,4.8,0.,4.8,0.,4.8
1981-08-27 00:14:53.540 ,4,0,0.,4.8,3.,4.8,0.,4.8,0.,4.8
1981-08-27 00:14:58.340 ,4,0,0.,4.8,2.,4.8,0.,4.8,0.,4.8
1981-08-27 00:15:03.140 ,4,0,0.,4.8,3.,4.8,0.,4.8,0.,4.8
1981-08-27 00:15:07.940 ,4,0,0.,4.8,2.,4.8,1.,4.8,0.,4.8
1981-08-27 00:15:12.740 ,5,0,0.,4.8,1.,4.8,0.,4.8,0.,4.8
1981-08-27 00:15:17.540 ,5,0,0.,4.8,0.,4.8,0.,4.8,0.,4.8
1981-08-27 00:15:22.340 ,5,0,0.,4.8,1.,4.8,0.,4.8,0.,4.8
1981-08-27 00:15:27.140 ,5,0,0.,4.8,2.,4.8,0.,4.8,0.,4.8
1981-08-27 00:15:31.940 ,5,0,0.,4.8,1.,4.8,0.,4.8,1.,4.8
1981-08-27 00:15:36.740 ,5,0,0.,4.8,2.,4.8,0.,4.8,1.,4.8
1981-08-27 00:15:41.540 ,5,0,0.,4.8,3.,4.8,0.,4.8,0.,4.8
1981-08-27 00:15:46.340 ,5,0,0.,4.8,0.,4.8,0.,4.8,1.,4.8
1981-08-27 00:15:51.140 ,5,0,0.,4.8,2.,4.8,0.,4.8,0.,4.8
1981-08-27 00:15:55.940 ,5,0,0.,4.8,0.,4.8,0.,4.8,0.,4.8
1981-08-27 00:16:00.740 ,6,0,0.,4.8,2.,4.8,0.,4.8,0.,4.8
1981-08-27 00:16:05.540 ,6,0,0.,4.8,2.,4.8,0.,4.8,0.,4.8
1981-08-27 00:16:10.340 ,6,0,0.,4.8,0.,4.8,1.,4.8,0.,4.8
1981-08-27 00:16:15.140 ,6,0,0.,4.8,2.,4.8,0.,4.8,0.,4.8
1981-08-27 00:16:19.940 ,6,0,0.,4.8,3.,4.8,0.,4.8,0.,4.8
1981-08-27 00:16:24.740 ,6,0,0.,4.8,1.,4.8,0.,4.8,0.,4.8
1981-08-27 00:16:29.540 ,6,0,0.,4.8,1.,4.8,1.,4.8,0.,4.8
1981-08-27 00:16:34.340 ,6,0,0.,4.8,2.,4.8,0.,4.8,0.,4.8
1981-08-27 00:16:39.140 ,6,0,0.,4.8,0.,4.8,0.,4.8,0.,4.8
1981-08-27 00:16:43.940 ,6,0,0.,4.8,1.,4.8,1.,4.8,0.,4.8
1981-08-27 00:16:48.740 ,7,0,0.,4.8,2.,4.8,0.,4.8,0.,4.8
1981-08-27 00:16:53.540 ,7,0,0.,4.8,5.,4.8,0.,4.8,0.,4.8
1981-08-27 00:16:58.340 ,7,0,0.,4.8,0.,4.8,0.,4.8,0.,4.8
1981-08-27 00:17:03.140 ,7,0,0.,4.8,0.,4.8,0.,4.8,0.,4.8
1981-08-27 00:17:07.940 ,7,0,0.,4.8,1.,4.8,0.,4.8,0.,4.8
1981-08-27 00:17:12.740 ,7,0,0.,4.8,1.,4.8,0.,4.8,0.,4.8
1981-08-27 00:17:17.540 ,7,0,0.,4.8,0.,4.8,0.,4.8,0.,4.8
1981-08-27 00:17:22.340 ,7,0,0.,4.8,0.,4.8,0.,4.8,0.,4.8
1981-08-27 00:17:27.140 ,7,0,0.,4.8,2.,4.8,0.,4.8,0.,4.8
1981-08-27 00:17:31.940 ,7,0,0.,4.8,1.,4.8,0.,4.8,0.,4.8
1981-08-27 00:17:36.740 ,7,0,0.,4.8,1.,4.8,0.,4.8,0.,4.8
1981-08-27 00:17:41.540 ,7,0,0.,4.8,0.,4.8,0.,4.8,0.,4.8
1981-08-27 00:17:46.340 ,7,0,0.,4.8,1.,4.8,0.,4.8,1.,4.8
1981-08-27 00:17:51.140 ,7,0,0.,4.8,1.,4.8,0.,4.8,0.,4.8
1981-08-27 00:17:55.940 ,7,0,0.,4.8,0.,4.8,0.,4.8,0.,4.8
1981-08-27 00:18:00.740 ,7,0,0.,4.8,0.,4.8,0.,4.8,0.,4.8
1981-08-27 00:18:05.540 ,7,0,0.,4.8,0.,4.8,0.,4.8,0.,4.8
1981-08-27 00:18:10.340 ,7,0,0.,4.8,0.,4.8,0.,4.8,0.,4.8
1981-08-27 00:18:15.140 ,7,0,0.,4.8,1.,4.8,0.,4.8,0.,4.8
1981-08-27 00:18:19.940 ,7,0,0.,4.8,0.,4.8,0.,4.8,0.,4.8
1981-08-27 00:18:24.740 ,6,0,0.,4.8,0.,4.8,0.,4.8,0.,4.8
1981-08-27 00:18:29.540 ,6,0,0.,4.8,1.,4.8,0.,4.8,0.,4.8
1981-08-27 00:18:34.340 ,6,0,0.,4.8,3.,4.8,0.,4.8,1.,4.8
1981-08-27 00:18:39.140 ,6,0,0.,4.8,1.,4.8,0.,4.8,0.,4.8
1981-08-27 00:18:43.940 ,6,0,0.,4.8,1.,4.8,0.,4.8,0.,4.8
1981-08-27 00:18:48.740 ,6,0,0.,4.8,2.,4.8,0.,4.8,0.,4.8
1981-08-27 00:18:53.540 ,6,0,0.,4.8,0.,4.8,0.,4.8,0.,4.8
1981-08-27 00:18:58.340 ,6,0,0.,4.8,3.,4.8,0.,4.8,0.,4.8
1981-08-27 00:19:03.140 ,6,0,0.,4.8,2.,4.8,0.,4.8,2.,4.8
1981-08-27 00:19:07.940 ,6,0,0.,4.8,0.,4.8,0.,4.8,0.,4.8
1981-08-27 00:19:12.740 ,5,0,0.,4.8,1.,4.8,0.,4.8,1.,4.8
1981-08-27 00:19:17.540 ,5,0,0.,4.8,0.,4.8,0.,4.8,1.,4.8
1981-08-27 00:19:22.340 ,5,0,0.,4.8,1.,4.8,0.,4.8,0.,4.8
1981-08-27 00:19:27.140 ,5,0,0.,4.8,0.,4.8,1.,4.8,0.,4.8
1981-08-27 00:19:31.940 ,5,0,0.,4.8,2.,4.8,1.,4.8,0.,4.8
1981-08-27 00:19:36.740 ,5,0,0.,4.8,1.,4.8,0.,4.8,0.,4.8
1981-08-27 00:19:41.540 ,5,0,0.,4.8,2.,4.8,0.,4.8,0.,4.8
1981-08-27 00:19:46.340 ,5,0,0.,4.8,3.,4.8,0.,4.8,0.,4.8
1981-08-27 00:19:51.140 ,5,0,0.,4.8,0.,4.8,0.,4.8,0.,4.8
1981-08-27 00:19:55.940 ,5,0,0.,4.8,3.,4.8,0.,4.8,0.,4.8
1981-08-27 00:20:00.740 ,4,0,0.,4.8,0.,4.8,0.,4.8,1.,4.8
1981-08-27 00:20:05.540 ,4,0,0.,4.8,2.,4.8,0.,4.8,0.,4.8
1981-08-27 00:20:10.340 ,4,0,0.,4.8,1.,4.8,0.,4.8,1.,4.8
1981-08-27 00:20:15.140 ,4,0,0.,4.8,1.,4.8,0.,4.8,0.,4.8
1981-08-27 00:20:19.940 ,4,0,0.,4.8,2.,4.8,0.,4.8,0.,4.8
1981-08-27 00:20:24.740 ,4,0,0.,4.8,2.,4.8,0.,4.8,0.,4.8
1981-08-27 00:20:29.540 ,4,0,0.,4.8,2.,4.8,0.,4.8,0.,4.8
1981-08-27 00:20:34.340 ,4,0,0.,4.8,1.,4.8,0.,4.8,0.,4.8
1981-08-27 00:20:39.140 ,4,0,0.,4.8,2.,4.8,0.,4.8,0.,4.8
1981-08-27 00:20:43.940 ,4,0,0.,4.8,0.,4.8,0.,4.8,0.,4.8
1981-08-27 00:20:48.740 ,3,0,0.,4.8,2.,4.8,0.,4.8,1.,4.8
1981-08-27 00:20:53.540 ,3,0,0.,4.8,1.,4.8,0.,4.8,0.,4.8
1981-08-27 00:20:58.340 ,3,0,0.,4.8,5.,4.8,0.,4.8,0.,4.8
1981-08-27 00:21:03.140 ,3,0,0.,4.8,1.,4.8,0.,4.8,0.,4.8
1981-08-27 00:21:07.940 ,3,0,0.,4.8,1.,4.8,0.,4.8,1.,4.8
1981-08-27 00:21:12.740 ,3,0,0.,4.8,0.,4.8,0.,4.8,0.,4.8
1981-08-27 00:21:17.540 ,3,0,0.,4.8,0.,4.8,0.,4.8,0.,4.8
1981-08-27 00:21:22.340 ,3,0,0.,4.8,2.,4.8,0.,4.8,0.,4.8
1981-08-27 00:21:27.140 ,3,0,0.,4.8,1.,4.8,0.,4.8,0.,4.8
1981-08-27 00:21:31.940 ,3,0,0.,4.8,0.,4.8,1.,4.8,0.,4.8
1981-08-27 00:21:36.740 ,2,0,0.,4.8,2.,4.8,0.,4.8,1.,4.8
1981-08-27 00:21:41.540 ,2,0,0.,4.8,3.,4.8,0.,4.8,0.,4.8
1981-08-27 00:21:46.340 ,2,0,0.,4.8,1.,4.8,0.,4.8,0.,4.8
1981-08-27 00:21:51.140 ,2,0,0.,4.8,0.,4.8,0.,4.8,0.,4.8
1981-08-27 00:21:55.940 ,2,0,0.,4.8,2.,4.8,1.,4.8,0.,4.8
1981-08-27 00:22:00.740 ,2,0,0.,4.8,2.,4.8,1.,4.8,0.,4.8
1981-08-27 00:22:05.540 ,2,0,0.,4.8,0.,4.8,0.,4.8,0.,4.8
1981-08-27 00:22:10.340 ,2,0,0.,4.8,0.,4.8,0.,4.8,0.,4.8
1981-08-27 00:22:15.140 ,2,0,0.,4.8,2.,4.8,0.,4.8,0.,4.8
1981-08-27 00:22:19.940 ,2,0,0.,4.8,0.,4.8,0.,4.8,0.,4.8
1981-08-27 00:22:24.740 ,1,0,0.,4.8,0.,4.8,1.,4.8,0.,4.8
1981-08-27 00:22:29.540 ,1,0,0.,4.8,2.,4.8,1.,4.8,0.,4.8
1981-08-27 00:22:34.340 ,1,0,0.,4.8,0.,4.8,0.,4.8,0.,4.8
1981-08-27 00:22:39.140 ,1,0,0.,4.8,0.,4.8,0.,4.8,0.,4.8
1981-08-27 00:22:43.940 ,1,0,0.,4.8,2.,4.8,0.,4.8,1.,4.8
1981-08-27 00:22:48.740 ,1,0,0.,4.8,0.,4.8,0.,4.8,0.,4.8
1981-08-27 00:22:53.540 ,1,0,0.,4.8,2.,4.8,0.,4.8,0.,4.8
1981-08-27 00:22:58.340 ,1,0,0.,4.8,2.,4.8,0.,4.8,0.,4.8
1981-08-27 00:23:03.140 ,1,0,0.,4.8,3.,4.8,0.,4.8,1.,4.8
1981-08-27 00:23:07.940 ,1,0,0.,4.8,1.,4.8,0.,4.8,0.,4.8
1981-08-27 00:23:12.740 ,0,0,0.,4.8,1.,4.8,0.,4.8,0.,4.8
1981-08-27 00:23:17.540 ,0,0,0.,4.8,0.,4.8,0.,4.8,0.,4.8
1981-08-27 00:23:22.340 ,0,0,0.,4.8,2.,4.8,0.,4.8,0.,4.8
1981-08-27 00:23:27.140 ,0,0,0.,4.8,2.,4.8,0.,4.8,0.,4.8
1981-08-27 00:23:31.940 ,0,0,0.,4.8,1.,4.8,0.,4.8,1.,4.8
1981-08-27 00:23:36.740 ,0,0,0.,4.8,1.,4.8,0.,4.8,0.,4.8
1981-08-27 00:23:41.540 ,0,0,0.,4.8,0.,4.8,0.,4.8,0.,4.8
1981-08-27 00:23:46.340 ,0,0,0.,4.8,0.,4.8,0.,4.8,0.,4.8
1981-08-27 00:23:51.140 ,0,0,0.,4.8,1.,4.8,1.,4.8,1.,4.8
1981-08-27 00:23:55.940 ,0,0,0.,4.8,1.,4.8,0.,4.8,0.,4.8
1981-08-27 00:24:00.740 ,0,0,0.,4.8,1.,4.8,0.,4.8,0.,4.8
1981-08-27 00:24:05.540 ,0,0,0.,4.8,1.,4.8,0.,4.8,0.,4.8
1981-08-27 00:24:10.340 ,0,0,0.,4.8,3.,4.8,0.,4.8,0.,4.8
1981-08-27 00:24:15.140 ,0,0,0.,4.8,0.,4.8,0.,4.8,0.,4.8
1981-08-27 00:24:19.940 ,0,0,0.,4.8,1.,4.8,0.,4.8,0.,4.8
1981-08-27 00:24:24.740 ,0,0,0.,4.8,1.,4.8,0.,4.8,0.,4.8
1981-08-27 00:24:29.540 ,0,0,0.,4.8,1.,4.8,1.,4.8,0.,4.8
1981-08-27 00:24:34.340 ,0,0,0.,4.8,2.,4.8,2.,4.8,0.,4.8
1981-08-27 00:24:39.140 ,0,0,0.,4.8,1.,4.8,0.,4.8,0.,4.8
1981-08-27 00:24:43.940 ,0,0,0.,4.8,1.,4.8,0.,4.8,0.,4.8
1981-08-27 00:24:48.740 ,1,0,0.,4.8,1.,4.8,0.,4.8,0.,4.8
1981-08-27 00:24:53.540 ,1,0,0.,4.8,1.,4.8,0.,4.8,0.,4.8
1981-08-27 00:24:58.340 ,1,0,0.,4.8,0.,4.8,0.,4.8,0.,4.8
1981-08-27 00:25:03.140 ,1,0,0.,4.8,1.,4.8,0.,4.8,0.,4.8
1981-08-27 00:25:07.940 ,1,0,0.,4.8,1.,4.8,0.,4.8,0.,4.8
1981-08-27 00:25:12.740 ,1,0,0.,4.8,0.,4.8,1.,4.8,0.,4.8
1981-08-27 00:25:17.540 ,1,0,0.,4.8,1.,4.8,1.,4.8,0.,4.8
1981-08-27 00:25:22.340 ,1,0,0.,4.8,1.,4.8,0.,4.8,0.,4.8
1981-08-27 00:25:27.140 ,1,0,0.,4.8,1.,4.8,1.,4.8,0.,4.8
1981-08-27 00:25:31.940 ,1,0,0.,4.8,2.,4.8,0.,4.8,0.,4.8
1981-08-27 00:25:36.740 ,2,0,0.,4.8,2.,4.8,0.,4.8,0.,4.8
1981-08-27 00:25:41.540 ,2,0,0.,4.8,5.,4.8,0.,4.8,0.,4.8
1981-08-27 00:25:46.340 ,2,0,0.,4.8,0.,4.8,0.,4.8,0.,4.8
1981-08-27 00:25:51.140 ,2,0,0.,4.8,0.,4.8,0.,4.8,0.,4.8
1981-08-27 00:25:55.940 ,2,0,0.,4.8,1.,4.8,0.,4.8,0.,4.8
1981-08-27 00:26:00.740 ,2,0,0.,4.8,1.,4.8,0.,4.8,2.,4.8
1981-08-27 00:26:05.540 ,2,0,0.,4.8,2.,4.8,0.,4.8,0.,4.8
1981-08-27 00:26:10.340 ,2,0,0.,4.8,4.,4.8,1.,4.8,0.,4.8
1981-08-27 00:26:15.140 ,2,0,0.,4.8,2.,4.8,2.,4.8,0.,4.8
1981-08-27 00:26:19.940 ,2,0,0.,4.8,1.,4.8,0.,4.8,0.,4.8
1981-08-27 00:26:24.740 ,3,0,0.,4.8,3.,4.8,0.,4.8,0.,4.8
1981-08-27 00:26:29.540 ,3,0,0.,4.8,1.,4.8,1.,4.8,0.,4.8
1981-08-27 00:26:34.340 ,3,0,0.,4.8,2.,4.8,0.,4.8,0.,4.8
1981-08-27 00:26:39.140 ,3,0,0.,4.8,0.,4.8,0.,4.8,0.,4.8
1981-08-27 00:26:43.940 ,3,0,0.,4.8,1.,4.8,0.,4.8,1.,4.8
1981-08-27 00:26:48.740 ,3,0,0.,4.8,6.,4.8,0.,4.8,0.,4.8
1981-08-27 00:26:53.540 ,3,0,0.,4.8,4.,4.8,0.,4.8,0.,4.8
1981-08-27 00:26:58.340 ,3,0,0.,4.8,2.,4.8,0.,4.8,0.,4.8
1981-08-27 00:27:03.140 ,3,0,0.,4.8,0.,4.8,2.,4.8,0.,4.8
1981-08-27 00:27:07.940 ,3,0,0.,4.8,0.,4.8,1.,4.8,1.,4.8
1981-08-27 00:27:12.740 ,4,0,0.,4.8,3.,4.8,0.,4.8,0.,4.8
1981-08-27 00:27:17.540 ,4,0,0.,4.8,0.,4.8,0.,4.8,0.,4.8
1981-08-27 00:27:22.340 ,4,0,0.,4.8,0.,4.8,1.,4.8,0.,4.8
1981-08-27 00:27:27.140 ,4,0,0.,4.8,0.,4.8,1.,4.8,0.,4.8
1981-08-27 00:27:31.940 ,4,0,0.,4.8,2.,4.8,1.,4.8,1.,4.8
1981-08-27 00:27:36.740 ,4,0,0.,4.8,3.,4.8,0.,4.8,0.,4.8
1981-08-27 00:27:41.540 ,4,0,0.,4.8,0.,4.8,0.,4.8,0.,4.8
1981-08-27 00:27:46.340 ,4,0,0.,4.8,4.,4.8,0.,4.8,0.,4.8
1981-08-27 00:27:51.140 ,4,0,0.,4.8,1.,4.8,1.,4.8,0.,4.8
1981-08-27 00:27:55.940 ,4,0,0.,4.8,1.,4.8,0.,4.8,0.,4.8
1981-08-27 00:28:00.740 ,5,0,0.,4.8,2.,4.8,0.,4.8,0.,4.8
1981-08-27 00:28:05.540 ,5,0,0.,4.8,0.,4.8,0.,4.8,0.,4.8
1981-08-27 00:28:10.340 ,5,0,0.,4.8,3.,4.8,0.,4.8,0.,4.8
1981-08-27 00:28:15.140 ,5,0,0.,4.8,1.,4.8,0.,4.8,0.,4.8
1981-08-27 00:28:19.940 ,5,0,0.,4.8,2.,4.8,0.,4.8,0.,4.8
1981-08-27 00:28:24.740 ,5,0,0.,4.8,0.,4.8,0.,4.8,0.,4.8
1981-08-27 00:28:29.540 ,5,0,0.,4.8,1.,4.8,0.,4.8,1.,4.8
1981-08-27 00:28:34.340 ,5,0,0.,4.8,3.,4.8,1.,4.8,0.,4.8
1981-08-27 00:28:39.140 ,5,0,0.,4.8,3.,4.8,0.,4.8,0.,4.8
1981-08-27 00:28:43.940 ,5,0,0.,4.8,2.,4.8,0.,4.8,0.,4.8
1981-08-27 00:28:48.740 ,6,0,0.,4.8,4.,4.8,1.,4.8,1.,4.8
1981-08-27 00:28:53.540 ,6,0,0.,4.8,0.,4.8,2.,4.8,0.,4.8
1981-08-27 00:28:58.340 ,6,0,0.,4.8,0.,4.8,0.,4.8,0.,4.8
1981-08-27 00:29:03.140 ,6,0,0.,4.8,1.,4.8,1.,4.8,0.,4.8
1981-08-27 00:29:07.940 ,6,0,0.,4.8,1.,4.8,0.,4.8,0.,4.8
1981-08-27 00:29:12.740 ,6,0,0.,4.8,2.,4.8,0.,4.8,0.,4.8
1981-08-27 00:29:17.540 ,6,0,0.,4.8,1.,4.8,0.,4.8,0.,4.8
1981-08-27 00:29:22.340 ,6,0,0.,4.8,0.,4.8,0.,4.8,1.,4.8
1981-08-27 00:29:27.140 ,6,0,0.,4.8,1.,4.8,0.,4.8,1.,4.8
1981-08-27 00:29:31.940 ,6,0,0.,4.8,2.,4.8,0.,4.8,0.,4.8
1981-08-27 00:29:36.740 ,7,0,0.,4.8,0.,4.8,0.,4.8,0.,4.8
1981-08-27 00:29:41.540 ,7,0,0.,4.8,0.,4.8,0.,4.8,0.,4.8
1981-08-27 00:29:46.340 ,7,0,0.,4.8,0.,4.8,0.,4.8,1.,4.8
1981-08-27 00:29:51.140 ,7,0,0.,4.8,0.,4.8,0.,4.8,0.,4.8
1981-08-27 00:29:55.940 ,7,0,0.,4.8,1.,4.8,0.,4.8,0.,4.8
1981-08-27 00:30:00.740 ,7,0,0.,4.8,0.,4.8,1.,4.8,0.,4.8
1981-08-27 00:30:05.540 ,7,0,0.,4.8,0.,4.8,0.,4.8,0.,4.8
1981-08-27 00:30:10.340 ,7,0,0.,4.8,0.,4.8,0.,4.8,0.,4.8
1981-08-27 00:30:15.140 ,7,0,0.,4.8,1.,4.8,0.,4.8,0.,4.8
1981-08-27 00:30:19.940 ,7,0,0.,4.8,0.,4.8,0.,4.8,1.,4.8
1981-08-27 00:30:24.740 ,7,0,0.,4.8,1.,4.8,0.,4.8,0.,4.8
1981-08-27 00:30:29.540 ,7,0,0.,4.8,0.,4.8,0.,4.8,0.,4.8
1981-08-27 00:30:34.340 ,7,0,0.,4.8,0.,4.8,0.,4.8,0.,4.8
1981-08-27 00:30:39.140 ,7,0,0.,4.8,0.,4.8,0.,4.8,0.,4.8
1981-08-27 00:30:43.940 ,7,0,0.,4.8,0.,4.8,0.,4.8,0.,4.8
1981-08-27 00:30:48.740 ,7,0,0.,4.8,0.,4.8,0.,4.8,0.,4.8
1981-08-27 00:30:53.540 ,7,0,0.,4.8,2.,4.8,0.,4.8,0.,4.8
1981-08-27 00:30:58.340 ,7,0,0.,4.8,0.,4.8,0.,4.8,0.,4.8
1981-08-27 00:31:03.140 ,7,0,0.,4.8,0.,4.8,0.,4.8,0.,4.8
1981-08-27 00:31:07.940 ,7,0,0.,4.8,0.,4.8,0.,4.8,0.,4.8
1981-08-27 00:31:12.740 ,6,0,0.,4.8,1.,4.8,0.,4.8,0.,4.8
1981-08-27 00:31:17.540 ,6,0,0.,4.8,0.,4.8,0.,4.8,0.,4.8
1981-08-27 00:31:22.340 ,6,0,0.,4.8,2.,4.8,0.,4.8,0.,4.8
1981-08-27 00:31:27.140 ,6,0,0.,4.8,2.,4.8,0.,4.8,0.,4.8
1981-08-27 00:31:31.940 ,6,0,0.,4.8,2.,4.8,0.,4.8,1.,4.8
1981-08-27 00:31:36.740 ,6,0,0.,4.8,1.,4.8,0.,4.8,1.,4.8
1981-08-27 00:31:41.540 ,6,0,0.,4.8,4.,4.8,1.,4.8,0.,4.8
1981-08-27 00:31:46.340 ,6,0,0.,4.8,2.,4.8,0.,4.8,1.,4.8
1981-08-27 00:31:51.140 ,6,0,0.,4.8,2.,4.8,0.,4.8,0.,4.8
1981-08-27 00:31:55.940 ,6,0,0.,4.8,1.,4.8,0.,4.8,0.,4.8
1981-08-27 00:32:00.740 ,5,0,0.,4.8,1.,4.8,0.,4.8,0.,4.8
1981-08-27 00:32:05.540 ,5,0,0.,4.8,1.,4.8,0.,4.8,0.,4.8
1981-08-27 00:32:10.340 ,5,0,0.,4.8,2.,4.8,0.,4.8,0.,4.8
1981-08-27 00:32:15.140 ,5,0,0.,4.8,1.,4.8,0.,4.8,2.,4.8
1981-08-27 00:32:19.940 ,5,0,0.,4.8,1.,4.8,2.,4.8,1.,4.8
1981-08-27 00:32:24.740 ,5,0,0.,4.8,2.,4.8,0.,4.8,0.,4.8
1981-08-27 00:32:29.540 ,5,0,0.,4.8,0.,4.8,0.,4.8,0.,4.8
1981-08-27 00:32:34.340 ,5,0,0.,4.8,3.,4.8,0.,4.8,0.,4.8
1981-08-27 00:32:39.140 ,5,0,0.,4.8,2.,4.8,2.,4.8,0.,4.8
1981-08-27 00:32:43.940 ,5,0,0.,4.8,1.,4.8,0.,4.8,0.,4.8
1981-08-27 00:32:48.740 ,4,0,0.,4.8,2.,4.8,0.,4.8,1.,4.8
1981-08-27 00:32:53.540 ,4,0,0.,4.8,3.,4.8,1.,4.8,0.,4.8
1981-08-27 00:32:58.340 ,4,0,0.,4.8,1.,4.8,0.,4.8,0.,4.8
1981-08-27 00:33:03.140 ,4,0,0.,4.8,2.,4.8,0.,4.8,0.,4.8
1981-08-27 00:33:07.940 ,4,0,0.,4.8,2.,4.8,1.,4.8,0.,4.8
1981-08-27 00:33:12.740 ,4,0,0.,4.8,0.,4.8,0.,4.8,0.,4.8
1981-08-27 00:33:17.540 ,4,0,0.,4.8,1.,4.8,0.,4.8,0.,4.8
1981-08-27 00:33:22.340 ,4,0,0.,4.8,1.,4.8,0.,4.8,0.,4.8
1981-08-27 00:33:27.140 ,4,0,0.,4.8,2.,4.8,0.,4.8,0.,4.8
1981-08-27 00:33:31.940 ,4,0,0.,4.8,2.,4.8,0.,4.8,0.,4.8
1981-08-27 00:33:36.740 ,3,0,0.,4.8,3.,4.8,0.,4.8,0.,4.8
1981-08-27 00:33:41.540 ,3,0,0.,4.8,2.,4.8,1.,4.8,1.,4.8